Regional Weather Roundup
Issued by NWS Jackson, KY

Home | Current Version | Previous Version | Text Only | Print | Product List | Glossary Off
Versions: 1 2 3 4 5 6 7 8 9 10 11 12 13 14 15 16 17 18 19 20 21 22 23 24 25 26 27 28 29 30 31 32 33 34 35 36 37 38 39 40 41 42 43 44 45 46 47 48 49 50

287
ASUS43 KJKL 272310
RWRJKL

EAST KENTUCKY HOURLY WEATHER ROUNDUP
NATIONAL WEATHER SERVICE JACKSON KY
600 PM EST MON FEB 27 2017

NOTE: "FAIR" INDICATES FEW OR NO CLOUDS BELOW 12,000 FEET WITH
NO SIGNIFICANT WEATHER AND/OR OBSTRUCTIONS TO VISIBILITY.

* THESE REPORTS ARE NOT UNDER NWS QUALITY CONTROL AND MAY NOT
  REPORT WEATHER SUCH AS PRECIPITATION AND FOG.

KYZ079-080-083-085-087-088-110-112-115-119-120-280000
...EASTERN KENTUCKY...

CITY           SKY/WX    TMP DP  RH WIND       PRES   REMARKS
JACKSON        CLOUDY    53  31  42 CALM      30.22S
LONDON         CLOUDY    53  34  48 S5        30.21S
SOMERSET*      PTCLDY    54  36  50 S3        30.21S
MONTICELLO*    PTCLDY    55  41  59 VRB3      30.21R
WILLIAMSBURG*  CLOUDY    54  36  50 SE3       30.21S
MIDDLESBORO*   CLOUDY    52  35  52 SE3       30.24R
HARLAN APT*    CLOUDY    52  30  43 CALM      30.24R
PIKE CO APT*   LGT RAIN  51  35  55 CALM      30.24R
BIG SANDY APT* CLOUDY    53  36  51 S6        30.24S
MOREHEAD APT*  CLOUDY    52  36  54 VRB5      30.22S
ASHLAND*       MOCLDY    48  39  71 SE5       30.23S
$$

KYZ035-036-041-042-044-050-067-078-099-280000
...CENTRAL KENTUCKY...

CITY           SKY/WX    TMP DP  RH WIND       PRES   REMARKS
FLEMING/MASON* CLEAR     51  37  60 SE5       30.21F
DANVILLE*      PTCLDY    54  41  62 S8        30.19S
LEXINGTON      PTCLDY    57  38  48 CALM      30.17S
FRANKFORT      CLEAR     56  36  47 SE5       30.16S
LOUISVILLE     PTCLDY    59  37  44 S7        30.14F
LEBANON*         N/A     57  39  51 S8        30.16S
GLASGOW*       CLEAR     60  41  49 S8        30.16R
BOWLING GREEN  CLEAR     61  42  49 S9        30.15R
$$

KYZ091>093-OHZ055-061-077-WVZ005-015-034-035-042-280000
...SOUTHERN OHIO/WEST VIRGINIA...

CITY           SKY/WX    TMP DP  RH WIND       PRES   REMARKS
COVINGTON      MOCLDY    48  41  76 SE9       30.18F
COLUMBUS       CLOUDY    46  41  82 SE8       30.23S
DAYTON         CLOUDY    45  41  86 SE7       30.19F
WILMINGTON     CLOUDY    45  42  89 SE7       30.20F
HUNTINGTON     CLOUDY    48  38  68 E7        30.24F
CHARLESTON     CLOUDY    49  38  65 CALM      30.25S
PINEVILLE*     CLOUDY    50  34  54 MISG      30.31R
BECKLEY        CLOUDY    49  24  37 SE8       30.26R
BLUEFIELD      CLOUDY    49  17  28 S10G23    30.28R
LOGAN CO APT*  CLOUDY    54  30  40 CALM      30.24S
$$

VAZ002-007-008-TNZ017-027-036-066-071-280000
...SOUTHWEST VIRGINIA/EAST TENNESSEE...

CITY           SKY/WX    TMP DP  RH WIND       PRES   REMARKS
WISE*          CLOUDY    50  25  37 CALM      30.24F
JONESVILLE*    CLOUDY    50  34  53 CALM      30.26R
ABINGDON*      CLOUDY    56  19  23 S6        30.25S
BRISTOL        CLOUDY    56  23  27 SE6       30.23F
MORRISTOWN*    CLOUDY    52  34  50 N5        30.22R
SEVIERVILLE*   CLOUDY    52  34  50 VRB3      30.21R
KNOXVILLE      CLOUDY    55  37  50 NW5       30.21R
LAFOLLETTE*    CLOUDY    54  37  54 CALM      30.24S
OAK RIDGE      CLOUDY    53  38  56 VRB3      30.24R
CROSSVILLE     CLOUDY    50  39  66 S8        30.21R
NASHVILLE      MOCLDY    61  42  49 SE12      30.16S
$$

...KEY TO REMARKS...
VSB - VISIBILITY IN MILES
WCI - WIND CHILL INDEX
HX  - HEAT INDEX

$$




USA.gov is the U.S. government's official web portal to all federal, state and local government web resources and services.